Find Starlink 33691

NORAD ID: 63462 Int'l Des: 2025-070 Owner: SPXS Country: US Constellation: starlink operational
LEOCIRCULAR

当前视图

正在加载3D地球...

About Starlink 33691

Starlink 33691 (NORAD 63462) is a starlink constellation satellite (v2 mini) launched Apr 6, 2025 by SPXS of US. It operates in LEO, CIRCULAR orbit with a mass of 575.00 kg.

即将过境

Passes for default location (London). Set your location on the main map for personalized predictions.

高度历史

Loading altitude history...

两行轨道根数

1 63462U 25070C 26236.49209428 .00011508 00000-0 42707-3 0 9990
2 63462 43.0026 31.7950 0002456 290.4209 69.6378 15.27578494 78596
Epoch: Aug 24, 2026 • Age: 14 hours

当前状态

高度 487.9 km
远地点 / 近地点 N/A
速度 7.62 km/s
星下点 -25.55°S, 1.94°W
发射日期 Apr 6, 2025
运行时间 1.3 years
类型 internet

技术详情

分类 Payload
质量 575.00 kg
干质量 530.00 kg
总质量 575.00 kg
长度 0.30 m
直径 4.10 m
跨度 29.00 m
形状 Box + pan
制造商 SPXS
平台类型 Starlink V2MO
阶段状态 In Orbit
所有者/国家 SPXS/US

Most Searched